Simultaneous Nadir Overpasses (SNOs) Predictions

Prediction of SNOs between AQUA and METOP-A Satellite Orbit:

Table of predicted SNOs for the next 14.0 days since TLE Epoch: 9/8/2017
Index Date (AQUA) Time (AQUA) Lat,Lon (AQUA) SZA (AQUA ) Date (METOP-A) Time (METOP-A) Lat,Lon (METOP-A) SZA (METOP-A ) Distance(km) Time Diff (sec)
1 09/09/2017 21:47:34 73.94,-152.97 68.95 09/09/2017 21:46:49 73.92,-153.00 68.94 2.23 45
2 09/09/2017 22:37:01 -74.03, 14.46 110.94 09/09/2017 22:37:29 -74.02, 14.55 110.97 3.24 28
3 09/12/2017 17:21:49 73.96, -86.58 70.04 09/12/2017 17:21:08 73.97, -86.48 70.05 3.03 41
4 09/12/2017 18:11:15 -74.00, 80.98 109.91 09/12/2017 18:11:49 -74.01, 80.95 109.90 1.64 34
5 09/15/2017 12:56:02 73.95, -20.10 71.09 09/15/2017 12:55:27 73.96, -20.09 71.12 2.08 35
6 09/15/2017 13:45:29 -74.04, 147.34 108.80 09/15/2017 13:46:08 -74.01, 147.34 108.84 3.10 39
7 09/18/2017 08:30:16 73.95, 46.34 72.17 09/18/2017 08:29:47 73.96, 46.30 72.19 1.77 29
8 09/18/2017 09:19:43 -74.03,-146.21 107.73 09/18/2017 09:20:27 -74.05,-146.15 107.72 2.37 44
9 09/21/2017 04:04:30 73.96, 112.75 73.28 09/21/2017 04:04:07 73.94, 112.67 73.26 3.23 23
10 09/21/2017 04:53:57 -74.05, -79.80 106.63 09/21/2017 04:54:47 -74.03, -79.77 106.64 1.54 50




NCC Satellite Simultaneous Nadir Overpasses (SNOs) Prediction Service
